GW0435 Weather Reports


Display with metric or nautical units.
time (UTC)temp
F
wind
direction
speed
MPH
gust
MPH
rain 1hr
in
rain 24hr
in
rain mn
in
humidity
%
barometer
mb
20260509054534 58 325 1.0 4.0 0.00 0.00 0.00 24 1002.7
20260509053034 59 325 0.0 2.0 0.00 0.00 0.00 23 1002.9
20260509051534 59 325 1.0 3.0 0.00 0.00 0.00 23 1003.1
20260509050034 60 325 0.0 3.0 0.00 0.00 0.00 22 1003.2
20260509044533 60 325 0.0 4.0 0.00 0.00 0.00 22 1003.3
20260509043032 60 325 2.0 7.0 0.00 0.00 0.00 21 1003.3
20260509041532 63 325 0.0 3.0 0.00 0.00 0.00 20 1003.2
20260509040031 63 325 1.0 5.0 0.00 0.00 0.00 19 1003.2
20260509034530 63 325 1.0 4.0 0.00 0.00 0.00 19 1003.1
20260509033030 63 325 2.0 5.0 0.00 0.00 0.00 18 1002.9
20260509031534 64 325 2.0 5.0 0.00 0.00 0.00 18 1002.7
20260509030029 65 325 2.0 6.0 0.00 0.00 0.00 17 1002.5
20260509024529 66 325 3.0 6.0 0.00 0.00 0.00 16 1002.3
20260509023028 67 325 3.0 8.0 0.00 0.00 0.00 16 1002.0
20260509021529 68 325 3.0 8.0 0.00 0.00 0.00 15 1001.7
20260509020045 70 325 3.0 9.0 0.00 0.00 0.00 14 1001.3
20260509014541 72 325 3.0 11.0 0.00 0.00 0.00 13 1001.1
20260509013036 73 325 4.0 16.0 0.00 0.00 0.00 13 1000.8
20260509011527 75 336 4.0 8.0 0.00 0.00 0.00 12 1000.8
20260509010026 75 336 4.0 9.0 0.00 0.00 0.00 13 1000.8
20260509004526 74 336 4.0 10.0 0.00 0.00 0.00 14 1000.7
20260509003031 76 336 6.0 11.0 0.00 0.00 0.00 13 1000.8
20260509001522 75 342 5.0 11.0 0.00 0.00 0.00 13 1001.0
20260509000021 74 344 1.0 4.0 0.00 0.00 0.00 14 1001.2
20260508234520 74 344 2.0 4.0 0.00 0.00 0.00 14 1001.3
20260508233020 75 344 5.0 9.0 0.00 0.00 0.00 14 1001.2
20260508231519 76 344 2.0 4.0 0.00 0.00 0.00 14 1001.3
20260508230020 75 344 4.0 9.0 0.00 0.00 0.00 14 1001.5
20260508224517 78 344 3.0 10.0 0.00 0.00 0.00 13 1001.5
20260508223021 77 344 2.0 9.0 0.00 0.00 0.00 13 1001.5
20260508221515 77 344 5.0 12.0 0.00 0.00 0.00 13 1001.6
20260508220013 76 344 0.0 4.0 0.00 0.00 0.00 13 1001.8
20260508214516 76 344 3.0 8.0 0.00 0.00 0.00 13 1002.0
20260508213010 75 344 2.0 11.0 0.00 0.00 0.00 14 1002.3
20260508211509 78 350 3.0 6.0 0.00 0.00 0.00 13 1002.5
20260508210006 74 350 4.0 7.0 0.00 0.00 0.00 14 1002.7
20260508204502 74 350 3.0 10.0 0.00 0.00 0.00 14 1003.2
20260508203107 73 350 3.0 12.0 0.00 0.00 0.00 14 1003.4
20260508201604 72 350 3.0 9.0 0.00 0.00 0.00 15 1003.6
20260508200056 73 351 6.0 12.0 0.00 0.00 0.00 15 1003.9
20260508194553 72 355 2.0 14.0 0.00 0.00 0.00 15 1004.1
20260508193054 71 355 6.0 17.0 0.00 0.00 0.00 16 1004.2
20260508191550 71 351 7.0 16.0 0.00 0.00 0.00 16 1004.4
20260508190048 69 5 4.0 13.0 0.00 0.00 0.00 16 1004.4
20260508184549 70 5 5.0 16.0 0.00 0.00 0.00 16 1004.7
20260508183044 70 9 9.0 14.0 0.00 0.00 0.00 16 1005.0
20260508181554 69 355 6.0 13.0 0.00 0.00 0.00 17 1005.3
20260508180037 69 355 5.0 15.0 0.00 0.00 0.00 17 1005.5
20260508174539 67 355 6.0 14.0 0.00 0.00 0.00 18 1005.7
20260508173037 67 351 10.0 15.0 0.00 0.00 0.00 18 1006.1
20260508171527 66 360 5.0 17.0 0.00 0.00 0.00 21 1006.1
20260508170022 66 355 8.0 15.0 0.00 0.00 0.00 21 1006.3
20260508164517 66 286 6.0 14.0 0.00 0.00 0.00 20 1006.6
20260508163017 65 248 6.0 12.0 0.00 0.00 0.00 19 1006.8
20260508161510 64 248 5.0 10.0 0.00 0.00 0.00 20 1006.9
20260508160005 63 248 5.0 9.0 0.00 0.00 0.00 20 1007.1
20260508154605 61 248 6.0 11.0 0.00 0.00 0.00 20 1007.2
20260508153057 60 248 3.0 8.0 0.00 0.00 0.00 21 1007.4
20260508151554 60 248 6.0 9.0 0.00 0.00 0.00 21 1007.6
20260508150048 58 248 6.0 9.0 0.00 0.00 0.00 22 1007.6
20260508144545 58 248 5.0 11.0 0.00 0.00 0.00 23 1007.7
20260508143038 57 248 5.0 10.0 0.00 0.00 0.00 23 1007.8
20260508141604 56 248 4.0 10.0 0.00 0.00 0.00 24 1007.9
20260508140031 55 248 7.0 11.0 0.00 0.00 0.00 24 1008.0
20260508134530 55 248 6.0 10.0 0.00 0.00 0.00 25 1008.0
20260508133021 53 248 5.0 10.0 0.00 0.00 0.00 27 1008.0
20260508131517 51 248 4.0 6.0 0.00 0.00 0.00 31 1007.9
20260508130012 48 248 3.0 5.0 0.00 0.00 0.00 32 1007.7
20260508124507 47 248 2.0 4.0 0.00 0.00 0.00 32 1007.6
20260508123004 45 248 2.0 4.0 0.00 0.00 0.00 34 1007.6
20260508121509 45 248 3.0 6.0 0.00 0.00 0.00 30 1007.6
20260508120100 44 248 3.0 7.0 0.00 0.00 0.00 29 1007.4
20260508114558 43 248 2.0 6.0 0.00 0.00 0.00 29 1007.3
20260508113106 44 248 3.0 6.0 0.00 0.00 0.00 33 1007.5
20260508111552 46 248 2.0 4.0 0.00 0.00 0.00 31 1007.4
20260508110056 46 248 1.0 3.0 0.00 0.00 0.00 31 1007.3
20260508104552 46 248 1.0 4.0 0.00 0.00 0.00 30 1007.3
20260508103046 46 248 1.0 3.0 0.00 0.00 0.00 29 1007.1
20260508101544 47 248 1.0 3.0 0.00 0.00 0.00 28 1007.0
20260508100041 48 248 2.0 4.0 0.00 0.00 0.00 26 1007.0
20260508094537 50 248 1.0 3.0 0.00 0.00 0.00 23 1007.2
20260508093041 49 248 1.0 3.0 0.00 0.00 0.00 20 1007.3
20260508091547 50 248 0.0 2.0 0.00 0.00 0.00 20 1007.4
20260508090039 50 248 1.0 3.0 0.00 0.00 0.00 19 1007.7
20260508084532 51 248 2.0 3.0 0.00 0.00 0.00 19 1007.8
20260508083031 50 248 1.0 3.0 0.00 0.00 0.00 19 1007.8
20260508081533 49 248 2.0 3.0 0.00 0.00 0.00 20 1007.9
20260508080034 48 248 1.0 4.0 0.00 0.00 0.00 21 1008.1
20260508074530 49 248 1.0 3.0 0.00 0.00 0.00 20 1008.2
20260508073026 49 248 1.0 3.0 0.00 0.00 0.00 20 1008.4
20260508071529 49 248 2.0 4.0 0.00 0.00 0.00 20 1008.5
20260508070023 48 248 1.0 4.0 0.00 0.00 0.00 21 1008.7
20260508064521 49 248 2.0 4.0 0.00 0.00 0.00 20 1008.7
20260508063018 51 248 2.0 4.0 0.00 0.00 0.00 18 1008.6
20260508061513 54 248 0.0 0.0 0.00 0.00 0.00 15 1008.5
20260508060013 55 248 1.0 2.0 0.00 0.00 0.00 15 1008.6